Regional Weather Roundup
Issued by NWS

Home | Current Version | Previous Version | Graphics & Text | Print | Product List | Glossary On
Versions: 1 2 3 4 5 6 7 8 9 10 11 12 13 14 15 16 17 18 19 20 21 22 23 24 25 26 27 28 29 30 31 32 33 34 35 36 37 38 39 40 41 42 43 44 45 46 47 48 49 50
000
ASUS44 KMEG 280000
RWRTN
TENNESSEE HOURLY STATE WEATHER ROUNDUP
NATIONAL WEATHER SERVICE MEMPHIS TN
700 PM CDT THU AUG 27 2015

TNZ002-004-019-021-049-052-054-088>092-280100-
WEST TENNESSEE

CITY           SKY/WX    TMP DP  RH WIND       PRES   REMARKS
MEMPHIS INTL   FAIR      79  56  45 NE9       30.04F
NWS MEMPHIS      N/A     77 N/A N/A MISG        N/A
JACKSON        FAIR      74  61  63 CALM      30.06F
DYERSBURG      FAIR     N/A N/A N/A MISG        N/A
UNION CITY     CLEAR     73  63  68 N3        30.06S
PARIS          CLEAR     73  59  60 N5        30.08S
LEXINGTON      CLEAR     75  57  53 CALM      30.05F
$$

TNZ008-025-027-028-033-062-065-066-280100-
NORTH MIDDLE TENNESSEE

CITY           SKY/WX    TMP DP  RH WIND       PRES   REMARKS
NASHVILLE      FAIR      78  52  40 N8        30.08S
CLARKSVILLE    LGT RAIN  76  57  51 NE7       30.08F
COOKEVILLE     CLEAR     75  63  64 N3        30.09R
CROSSVILLE     FAIR      73  59  61 N5        30.12R
$$

TNZ061-075-076-078-094-096-097-280100-
SOUTH MIDDLE TENNESSEE

CITY           SKY/WX    TMP DP  RH WIND       PRES   REMARKS
FAYETTEVILLE     N/A     75  61  60 CALM      30.06S
TULLAHOMA      CLEAR     73  63  68 N6        30.09R
WINCHESTER     CLEAR     75  64  69 N5        30.07R
COLUMBIA       CLEAR     79  57  47 N5        30.06S
SHELBYVILLE    CLEAR     75  64  69 CALM      30.08S
$$

TNZ017-018-042-046-047-280100-
NORTHEAST TENNESSEE

CITY           SKY/WX    TMP DP  RH WIND       PRES   REMARKS
TRI CITIES     FAIR      73  59  61 N6        30.08S
ELIZABETHTON   CLOUDY    72  61  68 CALM      30.09R
$$

TNZ012-013-036-069-073-074-280100-
CENTRAL EAST TENNESSEE

CITY           SKY/WX    TMP DP  RH WIND       PRES   REMARKS
KNOXVILLE      FAIR      79  59  50 N6        30.05S
OAK RIDGE      FAIR      77  61  57 N3        30.08R
GATLINBURG     PTCLDY    79  57  47 CALM      30.05S
$$

TNZ083-085-099-280100-
SOUTHEAST TENNESSEE

CITY           SKY/WX    TMP DP  RH WIND       PRES   REMARKS
CHATTANOOGA    FAIR      81  61  50 NE7       30.04S
$$

SKY/WX REPORTED AS FAIR MEANS FEW OR NO CLOUDS BELOW
12 THOUSAND FEET.



USA.gov is the U.S. government's official web portal to all federal, state and local government web resources and services.